EW6393 Weather Reports


Display with metric or nautical units.
time (UTC)temp
F
wind
direction
speed
MPH
gust
MPH
rain 1hr
in
rain 24hr
in
rain mn
in
humidity
%
barometer
mb
20260903063628 68 91 0.0 1.0 0.00 0.00 0.00 30 1014.0
20260903063137 68 91 0.0 1.0 0.00 0.00 0.00 29 1013.8
20260903062635 68 91 0.0 1.0 0.00 0.00 0.00 30 1013.9
20260903062123 67 91 1.0 1.0 0.00 0.00 0.00 29 1013.8
20260903061625 68 91 0.0 1.0 0.00 0.00 0.00 30 1013.8
20260903061126 68 91 0.0 1.0 0.00 0.00 0.00 29 1013.6
20260903060635 69 91 0.0 3.0 0.00 0.00 0.00 29 1013.5
20260903060117 69 91 2.0 3.0 0.00 0.00 0.00 27 1013.5
20260903055646 69 103 0.0 2.0 0.00 0.00 0.00 27 1013.4
20260903055128 69 103 0.0 4.0 0.00 0.00 0.00 27 1013.4
20260903054635 69 98 2.0 4.0 0.00 0.00 0.00 28 1013.6
20260903054117 69 126 0.0 1.0 0.00 0.00 0.00 28 1013.7
20260903053619 69 126 0.0 1.0 0.00 0.00 0.00 29 1013.6
20260903053128 69 126 0.0 1.0 0.00 0.00 0.00 27 1013.7
20260903052630 69 126 0.0 1.0 0.00 0.00 0.00 28 1013.5
20260903052112 70 126 0.0 3.0 0.00 0.00 0.00 26 1013.5
20260903051614 70 129 2.0 3.0 0.00 0.00 0.00 25 1013.5
20260903051123 70 129 1.0 3.0 0.00 0.00 0.00 26 1013.6
20260903050625 70 101 0.0 4.0 0.00 0.00 0.00 27 1013.5
20260903050134 70 70 2.0 4.0 0.00 0.00 0.00 27 1013.7
20260903045616 70 153 0.0 2.0 0.00 0.00 0.00 26 1013.7
20260903045118 70 93 1.0 2.0 0.00 0.00 0.00 26 1013.5
20260903044620 71 64 1.0 4.0 0.00 0.00 0.00 26 1013.6
20260903044111 71 130 3.0 4.0 0.00 0.00 0.00 25 1013.7
20260903043613 71 212 0.0 4.0 0.00 0.00 0.00 24 1013.5
20260903043115 70 65 1.0 2.0 0.00 0.00 0.00 26 1013.6
20260903042624 70 149 1.0 1.0 0.00 0.00 0.00 24 1013.5
20260903042126 70 110 0.0 1.0 0.00 0.00 0.00 26 1013.5
20260903041612 71 110 0.0 3.0 0.00 0.00 0.00 26 1013.4
20260903041120 71 120 1.0 3.0 0.00 0.00 0.00 25 1013.3
20260903040617 71 94 1.0 4.0 0.00 0.00 0.00 25 1013.2
20260903040125 71 107 1.0 3.0 0.00 0.00 0.00 25 1013.1
20260903035611 71 136 2.0 3.0 0.00 0.00 0.00 25 1013.1
20260903035114 71 126 1.0 2.0 0.00 0.00 0.00 25 1013.0
20260903034622 72 101 0.0 2.0 0.00 0.00 0.00 25 1012.9
20260903034124 72 124 0.0 3.0 0.00 0.00 0.00 25 1012.8
20260903033626 72 106 2.0 3.0 0.00 0.00 0.00 25 1012.9
20260903033135 72 134 0.0 4.0 0.00 0.00 0.00 25 1012.9
20260903032616 73 144 1.0 4.0 0.00 0.00 0.00 24 1012.8
20260903032119 73 131 3.0 4.0 0.00 0.00 0.00 24 1012.7
20260903031627 73 124 0.0 2.0 0.00 0.00 0.00 25 1012.6
20260903031129 73 120 0.0 1.0 0.00 0.00 0.00 24 1012.6
20260903030611 73 120 0.0 4.0 0.00 0.00 0.00 24 1012.5
20260903030121 74 141 1.0 4.0 0.00 0.00 0.00 23 1012.6
20260903025623 74 123 1.0 2.0 0.00 0.00 0.00 22 1012.5
20260903025125 74 58 1.0 2.0 0.00 0.00 0.00 20 1012.3
20260903024634 74 96 1.0 2.0 0.00 0.00 0.00 23 1012.4
20260903024116 74 134 0.0 2.0 0.00 0.00 0.00 23 1012.3
20260903023618 74 124 1.0 2.0 0.00 0.00 0.00 24 1012.2
20260903023121 74 104 1.0 2.0 0.00 0.00 0.00 23 1012.2
20260903022630 74 43 1.0 2.0 0.00 0.00 0.00 23 1012.2
20260903022112 75 44 0.0 6.0 0.00 0.00 0.00 22 1012.1
20260903021614 76 315 1.0 6.0 0.00 0.00 0.00 21 1012.1
20260903021122 76 280 2.0 4.0 0.00 0.00 0.00 19 1012.0
20260903020644 77 184 0.0 4.0 0.00 0.00 0.00 17 1011.9
20260903020112 77 196 2.0 4.0 0.00 0.00 0.00 16 1011.9
20260903015614 78 167 2.0 4.0 0.00 0.00 0.00 16 1012.1
20260903015142 78 216 2.0 5.0 0.00 0.00 0.00 16 1012.1
20260903014623 78 150 1.0 5.0 0.00 0.00 0.00 15 1012.1
20260903014133 78 232 2.0 5.0 0.00 0.00 0.00 16 1012.2
20260903013613 79 184 2.0 4.0 0.00 0.00 0.00 15 1012.2
20260903013114 79 194 1.0 10.0 0.00 0.00 0.00 16 1012.3
20260903012623 79 233 1.0 10.0 0.00 0.00 0.00 16 1012.4
20260903012125 80 92 2.0 7.0 0.00 0.00 0.00 15 1012.4
20260903011654 80 140 2.0 13.0 0.00 0.00 0.00 14 1012.5
20260903011116 81 193 4.0 13.0 0.00 0.00 0.00 14 1012.4
20260903010618 81 150 2.0 6.0 0.00 0.00 0.00 14 1012.6
20260903010127 81 184 2.0 10.0 0.00 0.00 0.00 14 1012.6
20260903005629 81 105 3.0 10.0 0.00 0.00 0.00 14 1012.6
20260903005111 81 149 2.0 10.0 0.00 0.00 0.00 14 1012.7
20260903004620 81 311 4.0 11.0 0.00 0.00 0.00 14 1012.7
20260903004122 81 216 4.0 13.0 0.00 0.00 0.00 14 1012.7
20260903003624 81 143 4.0 11.0 0.00 0.00 0.00 16 1012.8
20260903003132 80 134 2.0 8.0 0.00 0.00 0.00 17 1012.8
20260903002615 80 198 1.0 8.0 0.00 0.00 0.00 18 1012.7
20260903002117 81 169 2.0 8.0 0.00 0.00 0.00 17 1012.7
20260903001624 81 143 3.0 12.0 0.00 0.00 0.00 17 1012.8
20260903001125 81 165 4.0 12.0 0.00 0.00 0.00 16 1012.7
20260903000654 81 257 3.0 7.0 0.00 0.00 0.00 17 1012.7
20260903000114 81 153 2.0 8.0 0.00 0.00 0.00 16 1012.7
20260902235616 81 354 4.0 9.0 0.00 0.00 0.00 16 1012.9
20260902235124 81 140 3.0 12.0 0.00 0.00 0.00 16 1012.9
20260902234654 81 155 5.0 19.0 0.00 0.00 0.00 16 1012.9
20260902234114 81 140 5.0 19.0 0.00 0.00 0.00 17 1013.0
20260902233614 81 79 3.0 14.0 0.00 0.00 0.00 18 1013.0
20260902233116 81 148 4.0 10.0 0.00 0.00 0.00 17 1013.0
20260902232645 81 11 3.0 14.0 0.00 0.00 0.00 17 1013.0
20260902232133 82 314 4.0 14.0 0.00 0.00 0.00 17 1013.2
20260902231615 82 176 2.0 7.0 0.00 0.00 0.00 17 1013.1
20260902231137 82 260 1.0 9.0 0.00 0.00 0.00 17 1013.0
20260902230625 82 302 3.0 12.0 0.00 0.00 0.00 17 1013.1
20260902230133 82 184 4.0 12.0 0.00 0.00 0.00 17 1013.1
20260902225614 82 231 4.0 12.0 0.00 0.00 0.00 19 1013.1
20260902225136 83 117 5.0 12.0 0.00 0.00 0.00 18 1012.9
20260902224644 83 252 3.0 8.0 0.00 0.00 0.00 18 1013.0
20260902224131 84 207 3.0 11.0 0.00 0.00 0.00 18 1013.1
20260902223614 83 221 3.0 11.0 0.00 0.00 0.00 18 1013.2
20260902223115 84 156 3.0 8.0 0.00 0.00 0.00 18 1013.2
20260902222618 83 287 2.0 11.0 0.00 0.00 0.00 19 1013.2
20260902222126 83 281 6.0 11.0 0.00 0.00 0.00 19 1013.2
20260902221655 83 177 2.0 8.0 0.00 0.00 0.00 19 1013.3
20260902221115 83 311 3.0 11.0 0.00 0.00 0.00 20 1013.4
20260902220615 83 226 4.0 11.0 0.00 0.00 0.00 19 1013.4
20260902220123 83 276 3.0 9.0 0.00 0.00 0.00 20 1013.5
20260902215625 84 191 2.0 10.0 0.00 0.00 0.00 19 1013.6
20260902215133 84 219 3.0 10.0 0.00 0.00 0.00 19 1013.5
20260902214636 84 247 4.0 10.0 0.00 0.00 0.00 19 1013.5
20260902214116 84 191 3.0 11.0 0.00 0.00 0.00 19 1013.7
20260902213624 84 204 4.0 11.0 0.00 0.00 0.00 18 1013.7
20260902213127 84 262 3.0 13.0 0.00 0.00 0.00 20 1013.7
20260902212636 85 158 6.0 13.0 0.00 0.00 0.00 20 1013.6
20260902212118 85 198 3.0 7.0 0.00 0.00 0.00 23 1013.7
20260902211620 85 58 3.0 7.0 0.00 0.00 0.00 22 1013.7
20260902211149 84 240 2.0 10.0 0.00 0.00 0.00 23 1013.7
20260902210630 84 258 4.0 16.0 0.00 0.00 0.00 21 1014.0
20260902210117 84 200 7.0 16.0 0.00 0.00 0.00 21 1014.0
20260902205619 84 282 7.0 11.0 0.00 0.00 0.00 21 1014.1
20260902205121 84 141 3.0 12.0 0.00 0.00 0.00 21 1014.1
20260902204629 84 63 4.0 13.0 0.00 0.00 0.00 23 1014.2
20260902204112 84 224 4.0 13.0 0.00 0.00 0.00 22 1014.2
20260902203614 84 206 4.0 13.0 0.00 0.00 0.00 23 1014.2
20260902203123 84 232 3.0 13.0 0.00 0.00 0.00 21 1014.2
20260902202625 84 239 4.0 11.0 0.00 0.00 0.00 20 1014.4
20260902202127 84 202 4.0 11.0 0.00 0.00 0.00 21 1014.3
20260902201635 84 110 4.0 15.0 0.00 0.00 0.00 21 1014.4
20260902201117 84 132 7.0 15.0 0.00 0.00 0.00 20 1014.5
20260902200620 83 160 4.0 14.0 0.00 0.00 0.00 20 1014.5
20260902200129 83 265 4.0 16.0 0.00 0.00 0.00 20 1014.5
20260902195611 83 207 4.0 16.0 0.00 0.00 0.00 23 1014.5
20260902195114 83 178 3.0 12.0 0.00 0.00 0.00 24 1014.6
20260902194621 82 204 6.0 12.0 0.00 0.00 0.00 23 1014.6
20260902194150 82 315 3.0 18.0 0.00 0.00 0.00 23 1014.7
20260902193651 82 118 8.0 18.0 0.00 0.00 0.00 24 1014.7
20260902193139 82 142 7.0 17.0 0.00 0.00 0.00 23 1014.7
20260902192620 82 205 6.0 15.0 0.00 0.00 0.00 25 1014.7
20260902192123 82 173 3.0 11.0 0.00 0.00 0.00 27 1014.9
20260902191632 81 213 2.0 16.0 0.00 0.00 0.00 27 1014.9
20260902191114 80 18 4.0 16.0 0.00 0.00 0.00 29 1015.1
20260902190615 80 165 7.0 15.0 0.00 0.00 0.00 28 1015.0
20260902190124 80 97 4.0 13.0 0.00 0.00 0.00 29 1015.2
20260902185653 80 193 4.0 13.0 0.00 0.00 0.00 30 1015.2
20260902185113 79 259 4.0 17.0 0.00 0.00 0.00 30 1015.2
20260902184614 79 158 5.0 17.0 0.00 0.00 0.00 29 1015.3
20260902184117 78 345 5.0 13.0 0.00 0.00 0.00 29 1015.2
20260902183646 78 304 4.0 12.0 0.00 0.00 0.00 31 1015.4
20260902183127 77 233 4.0 11.0 0.00 0.00 0.00 32 1015.5
20260902182633 77 226 3.0 10.0 0.00 0.00 0.00 32 1015.4
20260902182115 77 86 3.0 11.0 0.00 0.00 0.00 32 1015.4
20260902181642 77 186 7.0 11.0 0.00 0.00 0.00 31 1015.7
20260902181124 77 283 3.0 10.0 0.00 0.00 0.00 32 1015.7
20260902180626 78 167 4.0 11.0 0.00 0.00 0.00 32 1015.7
20260902180116 78 214 3.0 11.0 0.00 0.00 0.00 33 1015.7
20260902175637 78 140 3.0 11.0 0.00 0.00 0.00 34 1015.8
20260902175145 77 135 4.0 12.0 0.00 0.00 0.00 34 1016.0
20260902174612 77 201 5.0 12.0 0.00 0.00 0.00 35 1016.0
20260902174114 77 218 3.0 11.0 0.00 0.00 0.00 35 1016.2
20260902173622 78 205 4.0 11.0 0.00 0.00 0.00 34 1016.1
20260902173124 78 302 2.0 17.0 0.00 0.00 0.00 34 1016.2
20260902172633 78 132 6.0 17.0 0.00 0.00 0.00 33 1016.2
20260902172114 78 192 6.0 20.0 0.00 0.00 0.00 34 1016.3
20260902171616 78 157 4.0 20.0 0.00 0.00 0.00 35 1016.3
20260902171124 78 134 6.0 11.0 0.00 0.00 0.00 35 1016.2
20260902170626 77 68 4.0 12.0 0.00 0.00 0.00 37 1016.3
20260902170135 77 169 5.0 13.0 0.00 0.00 0.00 36 1016.3
20260902165617 77 158 4.0 16.0 0.00 0.00 0.00 35 1016.3
20260902165140 77 167 7.0 17.0 0.00 0.00 0.00 35 1016.3
20260902164627 77 158 9.0 17.0 0.00 0.00 0.00 34 1016.3
20260902164129 78 212 5.0 14.0 0.00 0.00 0.00 34 1016.4
20260902163611 78 174 5.0 13.0 0.00 0.00 0.00 33 1016.3
20260902163119 77 148 4.0 13.0 0.00 0.00 0.00 34 1016.3
20260902162621 77 221 5.0 13.0 0.00 0.00 0.00 34 1016.3
20260902162131 77 198 4.0 15.0 0.00 0.00 0.00 35 1016.5
20260902161613 77 179 7.0 21.0 0.00 0.00 0.00 34 1016.4
20260902161142 77 170 8.0 21.0 0.00 0.00 0.00 34 1016.5
20260902160622 77 138 7.0 13.0 0.00 0.00 0.00 33 1016.4
20260902160124 77 207 6.0 13.0 0.00 0.00 0.00 34 1016.4
20260902155634 77 165 5.0 10.0 0.00 0.00 0.00 35 1016.3
20260902155114 76 185 3.0 10.0 0.00 0.00 0.00 36 1016.3
20260902154623 76 86 2.0 11.0 0.00 0.00 0.00 36 1016.3
20260902154145 76 208 4.0 11.0 0.00 0.00 0.00 35 1016.4
20260902153633 77 255 4.0 11.0 0.00 0.00 0.00 35 1016.4
20260902153114 76 104 3.0 11.0 0.00 0.00 0.00 36 1016.4
20260902152615 76 140 5.0 11.0 0.00 0.00 0.00 35 1016.3
20260902152123 76 219 4.0 13.0 0.00 0.00 0.00 36 1016.3
20260902151645 76 165 5.0 11.0 0.00 0.00 0.00 36 1016.3
20260902151134 76 133 3.0 11.0 0.00 0.00 0.00 36 1016.2
20260902150616 76 214 5.0 14.0 0.00 0.00 0.00 35 1016.2
20260902150118 75 127 4.0 14.0 0.00 0.00 0.00 36 1016.2
20260902145627 75 162 5.0 14.0 0.00 0.00 0.00 35 1016.1
20260902145129 75 173 7.0 19.0 0.00 0.00 0.00 35 1016.0
20260902144610 75 179 7.0 19.0 0.00 0.00 0.00 36 1016.0
20260902144118 74 200 6.0 11.0 0.00 0.00 0.00 36 1015.8
20260902143620 74 189 3.0 14.0 0.00 0.00 0.00 37 1015.8
20260902143149 73 271 6.0 14.0 0.00 0.00 0.00 38 1015.8
20260902142629 72 235 4.0 11.0 0.00 0.00 0.00 40 1015.8
20260902142138 71 222 4.0 11.0 0.00 0.00 0.00 41 1015.9
20260902141619 71 199 3.0 11.0 0.00 0.00 0.00 41 1015.7
20260902141124 70 146 2.0 10.0 0.00 0.00 0.00 43 1015.5
20260902140625 70 197 4.0 10.0 0.00 0.00 0.00 42 1015.5
20260902140111 70 175 2.0 6.0 0.00 0.00 0.00 43 1015.5
20260902135620 69 162 2.0 6.0 0.00 0.00 0.00 43 1015.5
20260902135138 69 155 1.0 6.0 0.00 0.00 0.00 44 1015.5
20260902134626 69 144 2.0 8.0 0.00 0.00 0.00 44 1015.5
20260902134112 69 182 2.0 8.0 0.00 0.00 0.00 44 1015.5
20260902133614 68 150 1.0 5.0 0.00 0.00 0.00 45 1015.6
20260902133122 68 115 2.0 3.0 0.00 0.00 0.00 45 1015.7
20260902132624 68 143 1.0 3.0 0.00 0.00 0.00 46 1015.7
20260902132124 68 121 0.0 9.0 0.00 0.00 0.00 46 1015.8
20260902131613 68 158 1.0 9.0 0.00 0.00 0.00 46 1015.7
20260902131115 68 103 3.0 6.0 0.00 0.00 0.00 47 1015.7
20260902130618 68 152 0.0 5.0 0.00 0.00 0.00 48 1015.6
20260902130137 68 146 1.0 5.0 0.00 0.00 0.00 49 1015.4
20260902125624 67 54 2.0 5.0 0.00 0.00 0.00 48 1015.4
20260902125111 67 146 0.0 4.0 0.00 0.00 0.00 50 1015.5
20260902124612 66 79 0.0 2.0 0.00 0.00 0.00 52 1015.5
20260902124121 66 139 1.0 4.0 0.00 0.00 0.00 52 1015.6
20260902123622 66 226 1.0 4.0 0.00 0.00 0.00 53 1015.6
20260902123124 66 58 0.0 3.0 0.00 0.00 0.00 55 1015.6
20260902122633 66 145 1.0 3.0 0.00 0.00 0.00 56 1015.7
20260902122115 66 58 1.0 2.0 0.00 0.00 0.00 55 1015.6
20260902121618 65 11 0.0 1.0 0.00 0.00 0.00 55 1015.4
20260902121147 65 11 0.0 1.0 0.00 0.00 0.00 56 1015.4
20260902120628 65 8 0.0 2.0 0.00 0.00 0.00 56 1015.4
20260902120138 65 63 0.0 2.0 0.00 0.00 0.00 56 1015.4
20260902115620 65 64 1.0 1.0 0.00 0.00 0.00 56 1015.3
20260902115129 65 63 0.0 1.0 0.00 0.00 0.00 54 1015.5
20260902114611 65 63 1.0 1.0 0.00 0.00 0.00 56 1015.4
20260902114113 66 58 0.0 2.0 0.00 0.00 0.00 54 1015.4
20260902113614 66 58 1.0 3.0 0.00 0.00 0.00 53 1015.2
20260902113123 66 346 1.0 2.0 0.00 0.00 0.00 53 1015.2
20260902112625 66 211 0.0 4.0 0.00 0.00 0.00 51 1015.2
20260902112133 66 212 1.0 4.0 0.00 0.00 0.00 51 1015.1
20260902111615 65 66 1.0 2.0 0.00 0.00 0.00 52 1015.2
20260902111117 65 58 0.0 1.0 0.00 0.00 0.00 52 1015.2
20260902110122 65 57 0.0 1.0 0.00 0.00 0.00 53 1015.2
20260902105625 65 57 0.0 1.0 0.00 0.00 0.00 53 1015.1
20260902105150 66 58 0.0 2.0 0.00 0.00 0.00 54 1015.1
20260902104613 66 58 1.0 2.0 0.00 0.00 0.00 52 1015.1
20260902104114 66 56 0.0 1.0 0.00 0.00 0.00 52 1015.1
20260902103622 66 21 0.0 1.0 0.00 0.00 0.00 50 1015.2
20260902103124 66 271 0.0 1.0 0.00 0.00 0.00 50 1015.1
20260902102626 66 88 0.0 1.0 0.00 0.00 0.00 49 1015.1
20260902102133 67 88 0.0 1.0 0.00 0.00 0.00 48 1015.1
20260902101615 67 81 0.0 2.0 0.00 0.00 0.00 47 1015.0
20260902101138 67 81 1.0 2.0 0.00 0.00 0.00 45 1015.0
20260902100619 67 58 1.0 2.0 0.00 0.00 0.00 45 1015.0
20260902100147 67 64 0.0 1.0 0.00 0.00 0.00 45 1015.1
20260902095636 68 113 0.0 3.0 0.00 0.00 0.00 45 1015.1
20260902095117 67 63 1.0 3.0 0.00 0.00 0.00 45 1015.1
20260902094619 67 70 1.0 2.0 0.00 0.00 0.00 45 1015.2
20260902094120 68 154 0.0 0.0 0.00 0.00 0.00 45 1015.4
20260902093613 68 154 0.0 4.0 0.00 0.00 0.00 44 1015.4
20260902093115 68 154 1.0 4.0 0.00 0.00 0.00 43 1015.3
20260902092614 68 89 0.0 2.0 0.00 0.00 0.00 45 1015.4
20260902092122 68 89 1.0 3.0 0.00 0.00 0.00 45 1015.4
20260902091641 68 63 1.0 3.0 0.00 0.00 0.00 46 1015.4
20260902091113 68 277 1.0 2.0 0.00 0.00 0.00 48 1015.4
20260902090657 68 82 1.0 2.0 0.00 0.00 0.00 47 1015.4
20260902090117 68 2 0.0 1.0 0.00 0.00 0.00 47 1015.4
20260902085620 68 2 0.0 1.0 0.00 0.00 0.00 45 1015.4
20260902085129 69 32 0.0 2.0 0.00 0.00 0.00 46 1015.2
20260902084615 68 32 1.0 2.0 0.00 0.00 0.00 46 1015.3
20260902084132 68 68 0.0 2.0 0.00 0.00 0.00 47 1015.3
20260902083619 68 290 1.0 2.0 0.00 0.00 0.00 47 1015.3
20260902083121 68 94 1.0 2.0 0.00 0.00 0.00 48 1015.3
20260902082630 68 44 0.0 2.0 0.00 0.00 0.00 47 1015.4
20260902082114 68 44 1.0 2.0 0.00 0.00 0.00 47 1015.4
20260902081616 68 34 0.0 2.0 0.00 0.00 0.00 47 1015.4
20260902081118 68 34 1.0 2.0 0.00 0.00 0.00 48 1015.5
20260902080627 69 195 0.0 1.0 0.00 0.00 0.00 46 1015.5
20260902080127 69 195 0.0 3.0 0.00 0.00 0.00 46 1015.5
20260902075636 69 82 0.0 2.0 0.00 0.00 0.00 47 1015.5
20260902075115 69 82 0.0 2.0 0.00 0.00 0.00 47 1015.4
20260902074624 69 181 0.0 1.0 0.00 0.00 0.00 46 1015.4
20260902074125 69 180 0.0 2.0 0.00 0.00 0.00 45 1015.3
20260902073626 70 195 1.0 2.0 0.00 0.00 0.00 45 1015.2
20260902073134 70 86 1.0 2.0 0.00 0.00 0.00 46 1015.2
20260902072615 70 207 0.0 2.0 0.00 0.00 0.00 46 1015.1
20260902072124 70 207 0.0 5.0 0.00 0.00 0.00 46 1015.1
20260902071624 70 97 1.0 3.0 0.00 0.00 0.00 46 1015.0
20260902071125 70 81 1.0 3.0 0.00 0.00 0.00 48 1015.0
20260902070634 70 103 2.0 3.0 0.00 0.00 0.00 48 1015.1
20260902070116 70 140 1.0 3.0 0.00 0.00 0.00 48 1015.1
20260902065617 70 197 1.0 3.0 0.00 0.00 0.00 49 1015.0
20260902065146 70 94 1.0 2.0 0.00 0.00 0.00 48 1015.0
20260902064625 71 122 0.0 4.0 0.00 0.00 0.00 47 1015.1
20260902064135 71 105 1.0 2.0 0.00 0.00 0.00 47 1014.9